Fort Lewis, WA

10:59 PM PST on February 24, 2018 (GMT -0800)
Gray Army Air Field

Weather History for KGRF - July, 2013

Change the Weather History Date:

Tuesday, July 9, 2013

  Actual Average Record
Temperature  
Mean Temperature 68 °F -  
Max Temperature 85 °F 73 °F 92 °F (2010)
Min Temperature 51 °F 51 °F 44 °F (2011)
Cooling Degree Days 3    
Growing Degree Days 18 (Base 50)    
Moisture  
Dew Point 56 °F    
Average Humidity 69    
Maximum Humidity 100    
Minimum Humidity 39    
Precipitation  
Precipitation 0.00 in - - ()
Sea Level Pressure  
Sea Level Pressure 30.08 in    
Wind  
Wind Speed 5 mph (WSW)    
Max Wind Speed 13 mph    
Max Gust Speed 20 mph    
Visibility 9 miles    
Events      
Averages and records for this station are not official NWS values.
T = Trace of Precipitation, MM = Missing Value Source: NWS Daily Summary

Daily Weather History Graph

Daily Weather History Graph

Search for Another Location

Airport or City:

Trip Planner

Search our weather history database for the weather conditions in past years. The results will help you decide how hot, cold, wet, or windy it might be!

Date:

Astronomy

Jul. 09, 2013 Rise Set
Actual Time 5:24 AM PDT 9:05 PM PDT
Civil Twilight 4:46 AM PDT 9:44 PM PDT
Nautical Twilight 3:53 AM PDT 10:36 PM PDT
Astronomical Twilight 2:40 AM PDT 11:48 PM PDT
Moon 7:03 AM PDT (7/9) 9:34 PM PDT (7/9)
Length of Visible Light 16h 58m
Length of Day
15h 40m
New Moon, 2% of the Moon is Illuminated
Jul 9
New Moon
Jul 15
First Quarter
Jul 22
Full
Jul 29
Last Quarter
Aug 6
New

Hourly Weather History & Observations

Time (PDT) Temp. Heat Index Dew Point Humidity Pressure Visibility Wind Dir Wind Speed Gust Speed Precip Events Conditions
12:58 AM 58.6 °F - 55.6 °F 90% 30.10 in 10.0 mi SE 3.5 mph - N/A   Clear
1:58 AM 57.4 °F - 55.9 °F 95% 30.10 in 10.0 mi SE 3.5 mph - N/A   Clear
2:58 AM 56.8 °F - 55.4 °F 95% 30.10 in 10.0 mi SE 4.6 mph - N/A   Clear
3:58 AM 54.7 °F - 54.0 °F 97% 30.10 in 10.0 mi SSE 3.5 mph - N/A   Clear
4:58 AM 52.7 °F - 52.2 °F 98% 30.10 in 10.0 mi SE 5.8 mph - N/A   Clear
5:13 AM 53.6 °F - 51.8 °F 94% 30.09 in 2.5 mi SSE 4.6 mph - N/A   Clear
5:18 AM 53.6 °F - 51.8 °F 94% 30.09 in 3.0 mi SSE 4.6 mph - N/A   Clear
5:48 AM 51.8 °F - 51.8 °F 100% 30.09 in 2.0 mi SE 4.6 mph - N/A   Clear
5:53 AM 51.8 °F - 51.8 °F 100% 30.09 in 4.0 mi SE 4.6 mph - N/A   Clear
5:58 AM 52.7 °F - 52.5 °F 99% 30.10 in 9.0 mi SE 4.6 mph - N/A   Clear
6:58 AM 55.6 °F - 55.2 °F 99% 30.11 in 10.0 mi SSE 3.5 mph - N/A   Clear
7:58 AM 60.4 °F - 57.4 °F 90% 30.12 in 10.0 mi Variable 1.2 mph - N/A   Clear
8:58 AM 64.9 °F - 57.4 °F 76% 30.13 in 10.0 mi NNW 1.2 mph - N/A   Clear
9:58 AM 70.7 °F - 57.7 °F 63% 30.12 in 10.0 mi Variable 1.2 mph - N/A   Clear
10:58 AM 74.3 °F - 57.4 °F 55% 30.11 in 10.0 mi Variable 5.8 mph - N/A   Clear
11:58 AM 76.8 °F - 57.0 °F 50% 30.10 in 10.0 mi NW 8.1 mph - N/A   Clear
12:58 PM 79.7 °F - 55.4 °F 43% 30.09 in 10.0 mi WNW 5.8 mph - N/A   Clear
1:58 PM 81.3 °F 80.9 °F 54.9 °F 40% 30.08 in 10.0 mi NW 5.8 mph - N/A   Clear
2:58 PM 83.1 °F 82.3 °F 55.9 °F 39% 30.07 in 10.0 mi Variable 4.6 mph - N/A   Clear
3:16 PM 84.2 °F 83.5 °F 57.2 °F 40% 30.05 in 10.0 mi NW 12.7 mph 19.6 mph N/A   Clear
3:58 PM 84.0 °F 83.3 °F 57.6 °F 40% 30.06 in 10.0 mi NW 8.1 mph - N/A   Clear
4:58 PM 84.9 °F 84.1 °F 57.2 °F 39% 30.04 in 10.0 mi WNW 8.1 mph - N/A   Clear
5:58 PM 85.3 °F 84.4 °F 57.7 °F 39% 30.03 in 10.0 mi NW 8.1 mph - N/A   Clear
6:58 PM 84.2 °F 83.7 °F 58.3 °F 41% 30.01 in 10.0 mi NNW 6.9 mph - N/A   Clear
7:58 PM 81.0 °F 81.0 °F 57.2 °F 44% 30.01 in 10.0 mi West 12.7 mph - N/A   Clear
8:58 PM 74.8 °F - 58.8 °F 57% 30.02 in 10.0 mi West 9.2 mph - N/A   Clear
9:58 PM 70.5 °F - 56.8 °F 62% 30.03 in 10.0 mi West 8.1 mph - N/A   Clear
10:58 PM 66.7 °F - 54.5 °F 65% 30.05 in 10.0 mi Variable 5.8 mph - N/A   Clear
11:58 PM 63.9 °F - 54.0 °F 70% 30.05 in 10.0 mi West 4.6 mph - N/A   Clear